EHI
0 0 0 0 0 0 0 0 0 0 0 0 0 0 0 2 6 10 12 30 66 88 88 86 82 70 48 23 8 4 2 1 2 2 2 1 0 0 1 1 4 8 9 6 4 2 1 0 0
0 0 0 0 0 0 0 0 0 0 0 0 0 0 1 4 8 13 15 32 63 83 84 85 84 75 59 36 15 6 5 4 4 4 2 1 1 1 2 2 3 6 7 4 3 2 1 0 0
0 0 0 0 0 0 0 0 0 0 0 0 0 0 2 6 11 18 22 34 59 77 83 89 89 83 73 54 29 13 10 9 8 7 6 4 3 3 3 2 2 3 3 2 1 1 1 0 0
0 0 0 0 0 0 0 0 0 0 0 0 0 3 8 11 16 25 26 33 56 76 87 93 93 89 82 69 47 28 21 18 15 14 13 11 8 5 4 2 1 1 1 1 1 0 0 0 0
0 0 0 0 0 0 0 0 0 0 0 0 2 9 17 20 24 29 25 28 53 77 89 94 94 93 88 78 64 51 43 39 33 27 22 18 14 10 6 2 1 1 1 0 0 0 0 0 0
0 0 0 0 0 0 0 0 0 0 0 0 3 13 24 28 30 29 21 24 50 77 90 93 93 92 89 81 74 70 65 59 52 43 32 25 19 13 7 3 2 1 0 0 0 0 0 0 0
0 0 0 0 0 0 0 0 0 0 0 0 2 12 27 37 36 29 20 25 50 76 87 89 88 85 81 76 76 77 73 65 57 47 36 27 19 12 7 4 2 1 0 0 0 0 0 0 0
0 0 0 0 0 0 0 0 0 0 0 0 1 11 30 45 43 33 25 31 52 74 81 79 75 72 66 63 67 72 70 61 50 38 28 21 13 7 4 3 3 1 0 0 0 0 0 0 1
0 0 0 0 0 0 0 0 0 0 0 0 2 12 30 44 43 37 35 41 56 72 73 64 59 57 50 48 55 59 56 48 36 25 18 13 7 3 2 5 7 4 0 0 0 0 0 0 1
0 0 0 0 0 0 0 0 0 0 0 0 2 11 26 39 40 38 41 50 62 71 67 52 44 44 39 42 52 49 38 31 22 14 11 7 3 2 5 13 16 9 1 0 0 0 0 0 1
0 0 0 0 0 0 0 0 0 0 0 0 1 8 20 30 33 35 39 50 63 70 63 48 41 40 39 48 56 45 32 25 18 13 11 5 1 4 14 23 20 10 2 0 0 0 0 0 0
0 0 0 0 0 0 0 0 0 0 0 0 1 6 14 20 24 30 37 47 61 68 61 51 50 49 50 60 59 43 34 31 25 25 23 12 5 8 20 27 20 8 1 0 0 0 1 1 2
0 0 0 0 0 0 0 0 0 0 1 1 2 6 11 16 19 27 38 50 64 71 64 58 61 63 65 70 65 47 41 38 37 41 37 22 13 15 26 32 24 10 5 6 4 3 4 6 6
0 0 0 0 0 0 0 0 0 1 2 3 4 6 11 16 20 29 42 55 68 75 72 68 70 71 73 75 71 58 50 48 49 52 47 31 24 29 37 40 33 19 17 21 18 12 11 11 11
0 0 0 0 0 0 0 0 0 1 3 5 6 8 13 17 22 31 45 58 68 73 75 74 74 73 73 75 74 66 60 59 60 60 54 41 36 43 48 46 39 30 31 37 33 23 19 17 15
0 0 0 0 0 0 0 0 1 2 5 7 7 9 13 17 22 32 46 58 65 69 73 74 74 75 74 74 75 70 67 66 66 65 60 49 43 48 53 51 45 42 42 42 36 29 25 22 20
0 0 0 0 0 0 0 1 3 4 6 8 8 9 12 18 25 34 45 57 64 67 71 72 74 75 74 73 73 71 68 66 64 63 58 50 45 47 53 54 52 51 47 38 30 30 28 23 20
0 0 0 0 0 0 1 2 4 5 7 8 9 11 15 22 29 36 44 53 61 66 68 70 72 73 70 66 63 64 63 59 56 54 52 50 46 46 49 52 54 55 48 34 26 28 26 20 15
0 0 0 0 0 0 1 3 4 4 6 9 11 14 19 25 30 36 41 45 54 61 64 66 66 64 61 56 52 53 51 47 45 45 47 50 49 46 44 46 51 53 46 32 27 26 21 15 12
0 0 0 0 0 0 1 3 4 5 8 13 15 15 19 26 31 34 37 39 45 53 58 60 58 55 52 48 43 41 39 37 34 33 36 41 43 41 38 39 43 44 38 30 27 25 18 11 8
0 0 0 0 0 0 1 3 6 9 13 17 17 16 18 24 28 30 33 36 39 45 50 52 51 50 46 41 36 31 28 26 22 20 22 25 28 29 30 29 30 29 26 23 21 19 15 9 6
0 0 0 0 0 0 0 2 6 12 16 16 15 17 19 21 24 26 29 33 36 40 44 46 47 46 43 39 34 26 21 17 13 12 13 13 15 17 19 18 17 17 16 13 11 11 10 7 5
0 0 0 0 0 0 0 1 5 10 13 13 14 16 18 19 21 25 28 31 33 36 40 41 41 40 40 40 36 27 18 13 9 7 6 7 8 9 11 11 10 10 10 8 6 7 7 6 4
0 0 0 0 0 0 0 0 3 7 10 13 14 14 15 17 20 25 29 31 32 34 37 37 35 32 33 36 34 26 16 10 6 4 2 3 6 7 7 7 7 7 7 6 6 6 7 6 5
0 0 0 0 0 0 0 0 3 8 13 14 12 12 14 16 18 21 25 28 29 31 33 33 30 26 25 27 27 21 13 7 4 3 3 4 6 6 6 6 6 6 5 5 5 5 4 3 3
0 0 0 0 0 0 0 0 3 8 13 13 11 11 14 16 15 15 18 20 22 25 27 28 26 22 19 19 19 15 9 4 2 3 4 5 5 4 4 3 3 3 3 2 3 3 1 1 1
0 0 0 0 0 0 0 0 2 5 8 8 8 10 13 13 11 11 12 13 13 15 17 19 18 16 13 12 11 7 4 2 1 1 3 3 2 1 1 1 1 1 1 0 1 1 0 0 0
0 0 0 0 0 0 0 0 1 2 3 4 6 9 10 9 7 7 8 6 6 7 9 10 11 9 7 4 3 2 1 0 0 0 1 1 0 0 0 0 0 0 0 0 0 0 0 0 0
0 0 0 0 0 0 0 0 1 2 3 5 7 8 8 6 4 3 3 2 1 2 4 5 6 6 4 1 0 0 0 0 0 0 0 0 0 0 0 0 0 0 0 0 0 0 0 0 0
0 0 0 0 0 0 0 1 1 2 5 7 8 8 6 5 3 1 1 0 0 0 2 4 4 4 3 1 0 0 0 0 0 0 0 0 0 0 0 0 0 0 0 0 0 0 0 0 0
Wind_Speed
10 14 12 10 9 11 18 19 11 4 2 4 5 4 4 6 7 7 6 6 17 20 18 18 17 17 17 17 16 15 15 14 13 13 12 12 12 11 11 11 11 11 11 11 11 10 10 10 10
11 15 12 9 11 14 15 13 8 2 4 4 3 2 2 6 9 9 9 10 18 20 17 16 17 17 18 17 17 16 16 15 14 13 13 12 11 11 11 10 10 10 10 10 10 10 10 10 9
12 17 10 10 16 17 15 6 3 3 4 2 1 1 3 6 8 8 10 13 17 18 17 17 17 17 17 17 17 17 16 15 15 14 13 12 12 11 10 10 10 10 10 10 10 10 10 9 8
10 10 9 11 18 21 20 11 4 3 2 2 2 2 3 7 8 11 13 14 17 18 18 18 17 17 17 17 17 17 16 16 15 14 13 12 11 11 10 10 10 10 10 10 10 10 9 8 8
11 9 13 15 19 20 17 10 4 4 3 3 3 2 4 6 10 14 12 13 15 17 17 17 16 16 16 17 17 16 16 15 14 14 13 12 11 10 10 10 10 10 9 9 9 9 8 7 7
10 10 13 16 20 19 17 12 7 6 7 6 5 4 4 7 8 11 12 12 14 17 18 16 17 17 16 16 16 15 15 15 14 13 13 12 11 10 10 10 10 9 9 9 9 9 8 7 6
12 12 16 19 18 17 13 7 6 6 8 8 4 3 6 8 8 8 12 12 13 17 18 15 15 15 15 15 16 15 15 14 14 13 13 12 12 11 11 10 10 9 9 9 9 8 8 6 5
12 13 18 19 18 16 12 5 4 6 8 5 3 3 6 9 8 7 9 11 14 15 17 15 15 14 13 13 15 16 15 14 14 14 13 13 12 12 11 11 10 10 10 9 9 8 7 6 5
15 13 15 18 16 12 8 5 4 5 8 7 5 2 8 13 11 8 9 10 12 14 15 15 16 14 13 13 14 14 14 14 14 13 13 12 10 10 10 11 12 11 10 10 9 8 8 7 7
12 12 18 16 12 11 11 9 6 7 9 9 8 5 12 12 11 11 11 13 14 15 16 15 16 16 15 12 12 10 10 10 10 10 11 9 8 8 10 13 14 12 11 10 10 9 8 7 6
14 16 16 15 10 9 12 13 11 10 10 10 7 6 9 10 11 13 13 13 14 16 16 17 16 15 13 9 10 7 7 8 9 10 10 8 6 6 7 7 8 8 10 8 8 8 7 7 5
15 15 15 13 11 9 11 13 13 12 11 10 8 5 6 9 9 12 13 14 14 15 16 15 15 13 11 10 9 7 7 7 7 7 9 7 4 5 6 5 7 7 6 6 7 6 7 6 4
14 14 14 12 11 11 12 14 13 13 12 10 9 8 8 7 9 9 6 8 9 11 12 12 12 11 7 7 7 7 5 7 7 6 7 6 4 4 4 5 5 6 6 6 5 5 4 3 2
12 12 13 12 12 12 13 14 14 14 12 11 10 9 8 8 6 3 3 4 5 7 10 9 9 9 8 6 5 5 5 5 6 5 7 6 4 2 2 3 3 3 3 4 3 3 3 2 1
11 13 14 15 15 14 13 15 15 15 11 10 9 8 7 7 4 2 3 5 5 6 6 7 7 7 7 8 7 5 5 5 4 4 5 4 2 2 2 2 2 1 1 2 2 2 2 2 1
11 14 16 17 15 11 10 13 12 9 9 8 8 7 6 3 3 2 3 5 5 4 5 6 8 8 7 5 5 3 2 3 3 3 3 3 2 2 1 2 2 1 1 1 2 1 2 2 2
15 16 16 10 7 7 9 11 9 5 6 6 6 6 5 2 0 1 3 6 7 5 5 6 5 7 7 5 4 2 2 2 3 3 3 3 2 3 3 2 1 1 1 1 1 2 2 2 2
10 10 10 7 5 8 11 11 9 8 6 6 6 4 3 1 1 2 5 6 7 6 5 4 4 4 4 4 3 2 3 3 3 3 3 3 2 3 3 2 2 2 2 1 1 2 2 2 2
12 12 13 12 9 8 10 10 10 9 7 7 5 3 2 1 4 6 7 7 6 6 5 3 4 4 3 2 3 3 2 3 3 2 3 2 2 2 2 2 3 3 2 3 3 2 3 3 3
11 13 14 13 10 8 10 12 11 10 7 5 3 1 0 2 5 7 8 6 5 5 5 4 4 4 4 2 1 2 3 3 3 3 3 3 2 2 3 2 2 2 2 2 2 2 2 2 2
13 13 13 13 12 12 14 15 12 8 3 2 1 1 1 5 7 8 7 6 5 5 3 3 3 4 5 5 2 3 3 3 2 3 3 4 4 4 4 4 3 2 2 2 2 2 2 2 1
13 12 12 13 14 12 14 13 9 4 3 2 2 3 5 6 7 7 7 7 7 5 4 4 3 3 4 5 5 6 4 4 3 3 4 6 7 6 6 5 5 4 4 3 3 3 2 2 2
13 13 13 14 16 15 14 13 7 3 3 3 4 5 7 8 9 8 7 6 7 6 6 5 5 4 4 4 6 6 7 6 5 5 7 6 7 8 7 7 7 6 6 6 6 6 5 4 3
12 14 15 14 12 14 11 12 8 3 3 7 6 5 4 5 8 8 8 8 8 7 6 6 6 5 5 5 6 7 10 10 9 7 7 6 5 6 8 8 7 7 6 7 7 7 8 6 6
10 10 9 10 8 8 8 8 4 2 5 11 11 8 6 7 9 9 10 10 9 9 7 7 7 7 6 6 7 9 9 10 10 8 7 6 6 6 7 7 8 7 8 8 8 8 8 8 7
9 10 9 9 11 8 5 6 1 7 7 10 11 9 8 8 9 10 10 10 9 9 9 8 8 7 8 9 9 10 9 7 7 8 8 7 6 7 8 8 9 9 8 8 8 8 7 7 7
10 9 10 11 13 11 5 3 1 6 7 8 10 9 9 9 10 10 10 10 10 10 10 9 9 9 10 10 11 11 10 10 10 10 9 7 7 8 9 9 9 9 8 8 8 7 7 6 6
10 9 7 7 8 9 6 2 2 1 4 7 8 9 9 9 10 10 10 10 10 10 10 10 10 10 11 11 11 11 12 11 11 11 11 10 10 9 9 9 9 8 8 7 8 7 7 8 7
9 9 8 7 8 7 8 3 1 2 4 7 8 8 9 9 9 10 10 10 10 11 11 11 11 11 11 12 12 13 12 12 12 11 10 9 9 9 8 8 8 8 8 7 7 7 7 7 7
10 9 8 7 8 7 7 2 3 4 6 8 10 10 10 10 10 10 10 10 10 11 11 11 11 11 12 12 13 13 12 12 11 10 9 9 9 8 8 8 8 8 7 6 7 8 7 7 7
Wind_Direction
268 258 249 252 247 242 252 259 255 209 133 65 61 46 24 33 56 109 163 161 127 129 136 139 141 145 146 147 145 144 142 141 139 136 133 129 125 121 117 113 110 108 109 110 110 110 110 108 108
270 263 246 248 252 249 248 256 261 159 110 95 89 133 97 78 90 118 142 139 130 133 142 143 142 146 148 149 148 147 146 146 144 141 138 135 132 129 124 120 117 114 113 113 113 114 115 115 115
261 263 254 243 244 256 271 299 332 105 131 161 157 50 80 97 101 116 129 140 136 138 143 137 146 147 149 151 152 151 150 149 148 146 144 141 138 134 130 127 124 122 120 119 118 117 120 122 122
246 236 238 247 249 249 257 255 234 226 211 170 166 134 91 90 113 124 138 149 144 143 140 142 147 147 150 152 154 155 153 151 151 150 148 146 143 140 138 135 132 130 128 126 123 121 123 124 124
237 245 235 247 257 263 270 269 224 240 241 221 204 182 108 89 106 122 146 150 147 144 140 145 146 147 149 152 154 155 153 152 152 152 151 148 145 144 143 141 139 138 136 133 130 127 124 123 123
229 234 243 248 254 256 258 262 252 251 258 250 232 191 125 122 119 139 146 151 150 142 138 143 147 148 150 153 154 155 153 153 154 153 153 151 150 150 149 148 148 147 145 140 136 135 133 130 131
243 245 250 257 265 268 263 258 257 254 257 257 251 193 147 138 131 149 144 157 147 142 139 148 153 152 153 154 154 154 153 154 154 154 155 156 157 158 158 156 156 154 151 149 145 145 144 144 150
244 262 265 265 269 274 281 284 274 272 269 274 262 220 143 126 132 146 151 155 147 147 145 154 158 156 158 158 158 157 156 156 157 159 162 162 164 167 166 164 164 163 161 160 158 158 160 165 175
242 254 262 265 270 280 291 290 276 272 269 267 260 194 132 135 143 160 165 158 155 151 148 159 161 162 165 164 161 160 160 160 161 166 169 169 176 176 177 177 165 171 172 171 171 175 179 186 199
232 245 253 264 293 315 320 314 292 268 257 254 246 190 146 155 157 178 181 171 168 161 159 165 167 168 172 169 158 166 171 166 177 174 174 189 194 186 182 163 167 176 179 180 185 190 195 211 209
231 246 266 284 306 311 304 300 291 273 263 262 256 225 175 169 173 192 192 180 174 169 168 170 171 170 174 163 160 171 177 168 191 181 180 198 198 184 163 158 166 177 184 191 186 196 212 213 218
237 253 269 285 301 298 286 284 282 275 271 274 278 259 226 187 196 208 197 184 177 175 175 170 168 168 173 160 161 172 181 167 187 177 182 195 200 196 163 167 173 181 190 196 180 204 209 214 212
241 253 264 268 270 268 269 270 274 275 276 276 275 273 261 227 209 211 201 184 166 169 170 168 164 163 163 147 160 173 185 172 182 174 187 192 199 201 170 174 176 189 185 186 187 199 189 192 205
270 270 267 268 265 261 258 261 263 261 259 260 263 266 273 263 242 200 147 152 151 166 172 161 156 157 155 150 161 167 189 173 175 169 186 196 201 194 171 160 170 196 170 167 176 169 149 137 85
270 279 272 259 250 249 252 254 253 254 246 248 253 251 249 255 249 155 135 138 153 167 156 145 157 166 163 164 170 177 187 163 163 157 171 182 194 158 177 139 165 220 140 127 122 128 109 127 124
257 255 257 249 227 232 243 265 268 257 236 235 250 256 250 246 239 159 137 124 113 131 146 150 169 170 164 164 168 177 175 148 135 126 130 171 189 150 154 142 166 178 75 80 102 97 103 93 84
242 244 253 252 206 228 242 266 277 270 250 234 243 251 254 239 219 80 112 111 111 120 141 148 155 158 160 162 155 163 117 107 112 110 123 159 194 177 162 158 128 139 119 104 178 135 130 122 108
281 264 270 279 242 241 250 254 257 254 245 239 234 238 251 255 113 71 81 85 97 106 118 126 127 131 146 157 152 140 108 91 90 100 130 153 182 190 159 156 154 151 145 138 115 119 124 123 115
304 302 297 290 280 265 269 267 265 253 237 243 233 225 247 48 65 68 69 67 70 89 102 115 133 130 134 153 161 160 135 100 90 85 97 142 167 162 157 163 154 153 151 155 148 138 136 131 127
284 280 278 281 286 281 278 274 270 259 239 227 213 197 99 63 56 63 61 55 65 89 103 115 118 122 117 118 151 138 123 106 101 88 77 76 94 118 142 127 128 153 145 142 150 145 142 129 129
267 273 284 293 295 280 271 264 261 261 233 179 146 109 86 81 57 50 46 54 62 66 88 108 105 122 133 133 134 118 102 95 90 80 68 58 65 69 76 92 99 100 119 126 121 109 124 145 128
272 279 285 288 285 282 281 280 273 235 202 173 61 35 37 62 61 48 39 38 45 56 66 72 96 107 125 138 144 142 135 125 100 86 74 61 59 61 65 71 76 76 76 75 77 72 87 117 135
282 292 292 286 283 281 279 277 275 244 212 133 80 53 37 44 60 51 42 35 44 45 57 57 66 69 86 120 138 138 124 111 102 96 85 73 63 60 62 65 67 70 69 67 64 64 65 62 65
282 288 283 276 275 274 289 288 277 277 188 144 136 111 64 49 67 58 53 43 44 40 49 52 67 64 69 86 109 120 120 117 113 105 96 82 72 67 64 66 68 69 71 69 68 70 70 68 64
273 282 285 286 277 279 318 302 311 53 147 146 138 117 93 68 63 55 47 43 39 36 43 48 64 70 71 85 93 99 106 110 109 106 97 91 83 75 70 73 70 69 70 70 69 69 66 65 64
276 274 274 285 290 291 288 275 343 82 98 109 110 112 103 83 68 58 50 45 39 35 40 50 61 70 73 81 86 90 95 95 94 92 93 90 86 82 78 77 77 76 75 75 73 72 68 65 66
268 269 274 272 278 284 266 253 68 99 97 98 105 101 93 83 75 66 58 50 44 40 41 51 65 70 75 79 87 86 87 91 92 89 87 85 84 84 79 79 78 77 76 75 76 73 68 63 62
263 279 285 283 290 290 290 304 342 161 133 125 113 106 94 84 77 68 62 57 52 49 48 53 65 71 77 80 83 86 85 86 86 86 85 86 86 84 84 81 79 78 76 76 78 77 73 73 67
285 273 278 287 293 303 303 318 20 146 149 127 114 108 102 91 79 72 67 65 60 57 57 60 65 70 74 77 81 84 84 86 86 87 88 88 87 85 86 87 85 80 76 76 80 82 76 76 72
297 293 289 288 294 300 298 345 72 115 125 117 111 104 97 93 86 81 75 70 68 65 63 66 72 75 77 79 81 81 81 83 87 89 90 90 89 85 85 85 86 85 82 77 78 84 80 79 75